Time,TemperatureF,DewpointF,PressureIn,WindDirection,WindDirectionDegrees,WindSpeedMPH,WindSpeedGustMPH,Humidity,HourlyPrecipIn,Conditions,Clouds,dailyrainin,SoftwareType,DateUTC
2013-03-07 00:00:00,42.3,34.3,29.89,NNW,328,16.0,18.0,73,0.00,,---,0.04,VWS V14.01,2013-03-07 05:00:00,
2013-03-07 00:05:00,42.2,34.2,29.89,NNW,348,15.0,21.0,73,0.00,,---,0.00,VWS V14.01,2013-03-07 05:05:00,
2013-03-07 00:10:00,42.2,34.2,29.89,NW,312,9.0,17.0,73,0.00,,---,0.00,VWS V14.01,2013-03-07 05:10:00,
2013-03-07 00:15:00,42.2,34.2,29.89,NNW,333,16.0,16.0,73,0.00,,---,0.00,VWS V14.01,2013-03-07 05:15:00,
2013-03-07 00:20:00,42.2,34.2,29.89,NNW,344,14.0,22.0,73,0.00,,---,0.00,VWS V14.01,2013-03-07 05:20:00,
2013-03-07 00:25:00,42.2,34.2,29.90,North,351,14.0,14.0,73,0.00,,---,0.00,VWS V14.01,2013-03-07 05:25:00,
2013-03-07 00:30:00,42.2,34.2,29.90,NW,322,5.0,20.0,73,0.00,,---,0.00,VWS V14.01,2013-03-07 05:30:00,
2013-03-07 00:35:00,42.0,34.0,29.90,NW,321,12.0,14.0,73,0.00,,---,0.00,VWS V14.01,2013-03-07 05:35:00,
2013-03-07 00:40:00,42.1,33.7,29.90,NNW,339,7.0,18.0,72,0.00,,---,0.00,VWS V14.01,2013-03-07 05:40:00,
2013-03-07 00:45:00,42.1,33.7,29.90,NW,317,15.0,18.0,72,0.00,,---,0.00,VWS V14.01,2013-03-07 05:45:00,
2013-03-07 00:50:00,42.1,33.7,29.90,NNW,336,13.0,18.0,72,0.00,,---,0.00,VWS V14.01,2013-03-07 05:50:00,
2013-03-07 00:55:00,42.1,33.7,29.90,North,355,7.0,18.0,72,0.00,,---,0.00,VWS V14.01,2013-03-07 05:55:00,
2013-03-07 01:00:00,42.0,33.6,29.90,North,360,12.0,21.0,72,0.00,,---,0.00,VWS V14.01,2013-03-07 06:00:00,
2013-03-07 01:05:00,42.1,33.4,29.90,NW,313,11.0,18.0,71,0.00,,---,0.00,VWS V14.01,2013-03-07 06:05:00,
2013-03-07 01:10:00,42.2,33.5,29.91,NW,323,10.0,20.0,71,0.00,,---,0.00,VWS V14.01,2013-03-07 06:10:00,
2013-03-07 01:15:00,42.1,33.4,29.91,NW,315,5.0,19.0,71,0.00,,---,0.00,VWS V14.01,2013-03-07 06:15:00,
2013-03-07 01:20:00,42.1,33.0,29.91,NNW,327,11.0,21.0,70,0.00,,---,0.00,VWS V14.01,2013-03-07 06:20:00,
2013-03-07 01:25:00,42.1,33.0,29.91,NNE,15,12.0,14.0,70,0.00,,---,0.00,VWS V14.01,2013-03-07 06:25:00,
2013-03-07 01:30:00,42.2,33.1,29.92,North,350,8.0,17.0,70,0.00,,---,0.00,VWS V14.01,2013-03-07 06:30:00,
2013-03-07 01:35:00,42.2,32.8,29.92,North,355,8.0,19.0,69,0.00,,---,0.00,VWS V14.01,2013-03-07 06:35:00,
2013-03-07 01:40:00,42.2,32.8,29.92,NNW,330,11.0,20.0,69,0.00,,---,0.00,VWS V14.01,2013-03-07 06:40:00,
2013-03-07 01:45:00,42.3,32.5,29.92,NW,325,11.0,23.0,68,0.00,,---,0.00,VWS V14.01,2013-03-07 06:45:00,
2013-03-07 01:50:00,42.3,32.5,29.93,NNW,346,7.0,19.0,68,0.00,,---,0.00,VWS V14.01,2013-03-07 06:50:00,
2013-03-07 01:55:00,42.4,32.6,29.93,North,355,13.0,26.0,68,0.00,,---,0.00,VWS V14.01,2013-03-07 06:55:00,
2013-03-07 02:00:00,42.3,32.5,29.93,NNW,333,11.0,18.0,68,0.00,,---,0.00,VWS V14.01,2013-03-07 07:00:00,
2013-03-07 02:05:00,42.3,32.5,29.93,NW,304,6.0,21.0,68,0.00,,---,0.00,VWS V14.01,2013-03-07 07:05:00,
2013-03-07 02:10:00,42.4,32.2,29.94,NNW,331,16.0,22.0,67,0.00,,---,0.00,VWS V14.01,2013-03-07 07:10:00,
2013-03-07 02:15:00,42.3,32.1,29.93,NNW,348,13.0,19.0,67,0.00,,---,0.00,VWS V14.01,2013-03-07 07:15:00,
2013-03-07 02:20:00,42.4,32.2,29.93,NNW,337,13.0,22.0,67,0.00,,---,0.00,VWS V14.01,2013-03-07 07:20:00,
2013-03-07 02:25:00,42.3,32.1,29.93,NNW,336,16.0,18.0,67,0.00,,---,0.00,VWS V14.01,2013-03-07 07:25:00,
2013-03-07 02:30:00,42.3,32.1,29.93,NNW,347,14.0,17.0,67,0.00,,---,0.00,VWS V14.01,2013-03-07 07:30:00,
2013-03-07 02:35:00,42.2,32.0,29.94,North,5,8.0,16.0,67,0.00,,---,0.00,VWS V14.01,2013-03-07 07:35:00,
2013-03-07 02:40:00,42.2,32.0,29.94,NNW,335,2.0,18.0,67,0.00,,---,0.00,VWS V14.01,2013-03-07 07:40:00,
2013-03-07 02:45:00,42.2,32.0,29.94,NW,323,13.0,18.0,67,0.00,,---,0.00,VWS V14.01,2013-03-07 07:45:00,
2013-03-07 02:50:00,42.2,32.0,29.94,NNW,329,12.0,13.0,67,0.00,,---,0.00,VWS V14.01,2013-03-07 07:50:00,
2013-03-07 02:55:00,42.2,32.0,29.95,NNW,332,8.0,13.0,67,0.00,,---,0.00,VWS V14.01,2013-03-07 07:55:00,
2013-03-07 03:00:00,42.0,31.9,29.95,NW,304,12.0,17.0,67,0.00,,---,0.00,VWS V14.01,2013-03-07 08:00:00,
2013-03-07 03:05:00,42.0,31.9,29.95,NW,326,9.0,15.0,67,0.00,,---,0.00,VWS V14.01,2013-03-07 08:05:00,
2013-03-07 03:10:00,42.0,31.9,29.95,NNW,343,7.0,14.0,67,0.00,,---,0.00,VWS V14.01,2013-03-07 08:10:00,
2013-03-07 03:15:00,42.0,31.5,29.95,NNW,348,12.0,15.0,66,0.00,,---,0.00,VWS V14.01,2013-03-07 08:15:00,
2013-03-07 03:20:00,42.0,31.5,29.95,North,355,17.0,17.0,66,0.00,,---,0.00,VWS V14.01,2013-03-07 08:20:00,
2013-03-07 03:25:00,42.0,31.5,29.95,NW,320,12.0,18.0,66,0.00,,---,0.00,VWS V14.01,2013-03-07 08:25:00,
2013-03-07 03:30:00,41.9,31.8,29.95,NNW,345,10.0,14.0,67,0.00,,---,0.00,VWS V14.01,2013-03-07 08:30:00,
2013-03-07 03:35:00,41.8,31.7,29.96,NW,317,10.0,13.0,67,0.00,,---,0.00,VWS V14.01,2013-03-07 08:35:00,
2013-03-07 03:40:00,41.7,31.6,29.96,NW,321,12.0,12.0,67,0.00,,---,0.00,VWS V14.01,2013-03-07 08:40:00,
2013-03-07 03:45:00,41.6,31.5,29.97,NW,313,5.0,12.0,67,0.00,,---,0.00,VWS V14.01,2013-03-07 08:45:00,
2013-03-07 03:50:00,41.5,32.1,29.97,NW,315,15.0,15.0,69,0.00,,---,0.00,VWS V14.01,2013-03-07 08:50:00,
2013-03-07 03:55:00,41.2,31.8,29.97,NW,310,8.0,10.0,69,0.00,,---,0.00,VWS V14.01,2013-03-07 08:55:00,
2013-03-07 04:00:00,41.0,32.0,29.97,NW,311,9.0,10.0,70,0.00,,---,0.00,VWS V14.01,2013-03-07 09:00:00,
2013-03-07 04:05:00,40.8,31.8,29.97,NNW,327,11.0,13.0,70,0.00,,---,0.00,VWS V14.01,2013-03-07 09:05:00,
2013-03-07 04:10:00,40.7,32.0,29.97,NW,306,8.0,16.0,71,0.00,,---,0.00,VWS V14.01,2013-03-07 09:10:00,
2013-03-07 04:15:00,40.5,31.9,29.97,NW,316,9.0,12.0,71,0.00,,---,0.00,VWS V14.01,2013-03-07 09:15:00,
2013-03-07 04:20:00,40.3,32.0,29.98,NW,321,7.0,11.0,72,0.00,,---,0.00,VWS V14.01,2013-03-07 09:20:00,
2013-03-07 04:25:00,40.2,31.9,29.98,NW,324,11.0,11.0,72,0.00,,---,0.00,VWS V14.01,2013-03-07 09:25:00,
2013-03-07 04:30:00,40.1,31.8,29.98,NW,313,6.0,15.0,72,0.00,,---,0.00,VWS V14.01,2013-03-07 09:30:00,
2013-03-07 04:35:00,39.9,32.0,29.98,NNW,347,10.0,13.0,73,0.00,,---,0.00,VWS V14.01,2013-03-07 09:35:00,
2013-03-07 04:40:00,39.9,32.0,29.99,NW,306,12.0,17.0,73,0.00,,---,0.00,VWS V14.01,2013-03-07 09:40:00,
2013-03-07 04:45:00,39.8,31.9,29.99,NW,325,10.0,14.0,73,0.00,,---,0.00,VWS V14.01,2013-03-07 09:45:00,
2013-03-07 04:50:00,39.7,31.8,29.99,NW,317,7.0,13.0,73,0.00,,---,0.00,VWS V14.01,2013-03-07 09:50:00,
2013-03-07 04:55:00,39.6,31.7,29.99,NW,323,7.0,12.0,73,0.00,,---,0.00,VWS V14.01,2013-03-07 09:55:00,
2013-03-07 05:00:00,39.5,31.9,29.99,NW,322,8.0,11.0,74,0.00,,---,0.00,VWS V14.01,2013-03-07 10:00:00,
2013-03-07 05:05:00,39.4,31.8,29.99,WNW,299,8.0,11.0,74,0.00,,---,0.00,VWS V14.01,2013-03-07 10:05:00,
2013-03-07 05:10:00,39.3,31.7,29.99,North,350,5.0,10.0,74,0.00,,---,0.00,VWS V14.01,2013-03-07 10:10:00,
2013-03-07 05:15:00,39.2,31.6,29.99,NNW,327,4.0,11.0,74,0.00,,---,0.00,VWS V14.01,2013-03-07 10:15:00,
2013-03-07 05:20:00,39.1,31.9,29.99,NW,318,5.0,11.0,75,0.00,,---,0.00,VWS V14.01,2013-03-07 10:20:00,
2013-03-07 05:25:00,39.1,31.9,29.99,North,350,7.0,11.0,75,0.00,,---,0.00,VWS V14.01,2013-03-07 10:25:00,
2013-03-07 05:30:00,39.0,31.8,29.99,NW,325,8.0,9.0,75,0.00,,---,0.00,VWS V14.01,2013-03-07 10:30:00,
2013-03-07 05:35:00,38.9,31.7,30.00,NW,314,10.0,11.0,75,0.00,,---,0.00,VWS V14.01,2013-03-07 10:35:00,
2013-03-07 05:40:00,38.9,31.7,30.00,NW,309,6.0,10.0,75,0.00,,---,0.00,VWS V14.01,2013-03-07 10:40:00,
2013-03-07 05:45:00,38.9,31.7,30.00,NW,309,4.0,13.0,75,0.00,,---,0.00,VWS V14.01,2013-03-07 10:45:00,
2013-03-07 05:50:00,38.8,31.6,30.00,NNW,347,6.0,11.0,75,0.00,,---,0.00,VWS V14.01,2013-03-07 10:50:00,
2013-03-07 05:55:00,38.8,31.6,30.00,NNW,336,5.0,10.0,75,0.00,,---,0.00,VWS V14.01,2013-03-07 10:55:00,
2013-03-07 06:00:00,38.8,31.9,30.01,NW,314,4.0,15.0,76,0.00,,---,0.00,VWS V14.01,2013-03-07 11:00:00,
2013-03-07 06:05:00,38.8,31.9,30.01,NNW,333,6.0,10.0,76,0.00,,---,0.00,VWS V14.01,2013-03-07 11:05:00,
2013-03-07 06:10:00,38.7,31.8,30.01,NW,316,6.0,11.0,76,0.00,,---,0.00,VWS V14.01,2013-03-07 11:10:00,
2013-03-07 06:15:00,38.7,31.8,30.01,NW,325,7.0,12.0,76,0.00,,---,0.00,VWS V14.01,2013-03-07 11:15:00,
2013-03-07 06:20:00,38.7,31.8,30.01,NW,320,11.0,11.0,76,0.00,,---,0.00,VWS V14.01,2013-03-07 11:20:00,
2013-03-07 06:25:00,38.7,31.8,30.02,NW,308,7.0,14.0,76,0.00,,---,0.00,VWS V14.01,2013-03-07 11:25:00,
2013-03-07 06:30:00,38.7,31.8,30.03,NNW,330,8.0,10.0,76,0.00,,---,0.00,VWS V14.01,2013-03-07 11:30:00,
2013-03-07 06:35:00,38.7,31.8,30.03,NW,309,9.0,13.0,76,0.00,,---,0.00,VWS V14.01,2013-03-07 11:35:00,
2013-03-07 06:40:00,38.8,31.9,30.03,NW,309,10.0,15.0,76,0.00,,---,0.00,VWS V14.01,2013-03-07 11:40:00,
2013-03-07 06:45:00,38.8,31.9,30.03,NW,320,9.0,13.0,76,0.00,,---,0.00,VWS V14.01,2013-03-07 11:45:00,
2013-03-07 06:50:00,38.9,32.0,30.03,WNW,298,7.0,13.0,76,0.00,,---,0.00,VWS V14.01,2013-03-07 11:50:00,
2013-03-07 06:55:00,38.9,32.0,30.04,NW,312,7.0,11.0,76,0.00,,---,0.00,VWS V14.01,2013-03-07 11:55:00,
2013-03-07 07:00:00,38.9,32.0,30.04,WNW,302,10.0,12.0,76,0.00,,---,0.00,VWS V14.01,2013-03-07 12:00:00,
2013-03-07 07:05:00,38.9,32.0,30.04,NW,308,10.0,16.0,76,0.00,,---,0.00,VWS V14.01,2013-03-07 12:05:00,
2013-03-07 07:10:00,39.0,32.1,30.05,NW,325,5.0,12.0,76,0.00,,---,0.00,VWS V14.01,2013-03-07 12:10:00,
2013-03-07 07:15:00,39.1,32.2,30.05,NNW,327,7.0,8.0,76,0.00,,---,0.00,VWS V14.01,2013-03-07 12:15:00,
2013-03-07 07:20:00,39.2,32.0,30.05,NNW,338,9.0,13.0,75,0.00,,---,0.00,VWS V14.01,2013-03-07 12:20:00,
2013-03-07 07:25:00,39.3,32.0,30.05,NNW,340,5.0,11.0,75,0.00,,---,0.00,VWS V14.01,2013-03-07 12:25:00,
2013-03-07 07:30:00,39.5,32.2,30.05,NNW,327,9.0,10.0,75,0.00,,---,0.00,VWS V14.01,2013-03-07 12:30:00,
2013-03-07 07:35:00,39.6,32.0,30.05,NNW,328,6.0,12.0,74,0.00,,---,0.00,VWS V14.01,2013-03-07 12:35:00,
2013-03-07 07:40:00,39.8,32.2,30.06,NNW,336,11.0,12.0,74,0.00,,---,0.00,VWS V14.01,2013-03-07 12:40:00,
2013-03-07 07:45:00,39.8,32.2,30.06,WNW,289,11.0,15.0,74,0.00,,---,0.00,VWS V14.01,2013-03-07 12:45:00,
2013-03-07 07:50:00,40.0,32.4,30.07,NNW,327,6.0,13.0,74,0.00,,---,0.00,VWS V14.01,2013-03-07 12:50:00,
2013-03-07 07:55:00,40.1,32.2,30.07,NNW,339,11.0,17.0,73,0.00,,---,0.00,VWS V14.01,2013-03-07 12:55:00,
2013-03-07 08:00:00,40.1,32.2,30.07,NW,310,15.0,19.0,73,0.00,,---,0.00,VWS V14.01,2013-03-07 13:00:00,
2013-03-07 08:05:00,40.4,32.4,30.07,WNW,298,6.0,15.0,73,0.00,,---,0.00,VWS V14.01,2013-03-07 13:05:00,
2013-03-07 08:10:00,40.6,32.6,30.07,NNW,327,6.0,18.0,73,0.00,,---,0.00,VWS V14.01,2013-03-07 13:10:00,
2013-03-07 08:15:00,40.9,32.6,30.08,NNW,336,6.0,14.0,72,0.00,,---,0.00,VWS V14.01,2013-03-07 13:15:00,
2013-03-07 08:20:00,41.1,32.8,30.08,NNW,348,6.0,17.0,72,0.00,,---,0.00,VWS V14.01,2013-03-07 13:20:00,
2013-03-07 08:25:00,41.4,32.7,30.08,NNW,336,12.0,12.0,71,0.00,,---,0.00,VWS V14.01,2013-03-07 13:25:00,
2013-03-07 08:30:00,41.6,32.6,30.09,NNW,328,11.0,15.0,70,0.00,,---,0.00,VWS V14.01,2013-03-07 13:30:00,
2013-03-07 08:35:00,41.9,32.8,30.09,NNW,335,12.0,15.0,70,0.00,,---,0.00,VWS V14.01,2013-03-07 13:35:00,
2013-03-07 08:40:00,42.3,33.2,30.09,North,355,9.0,13.0,70,0.00,,---,0.00,VWS V14.01,2013-03-07 13:40:00,
2013-03-07 08:45:00,42.7,32.9,30.09,North,5,10.0,16.0,68,0.00,,---,0.00,VWS V14.01,2013-03-07 13:45:00,
2013-03-07 08:50:00,43.1,32.5,30.09,NW,315,17.0,17.0,66,0.00,,---,0.00,VWS V14.01,2013-03-07 13:50:00,
2013-03-07 08:55:00,43.4,32.4,30.09,NNW,346,13.0,19.0,65,0.00,,---,0.00,VWS V14.01,2013-03-07 13:55:00,
2013-03-07 09:00:00,43.8,32.4,30.09,WNW,303,9.0,13.0,64,0.00,,---,0.00,VWS V14.01,2013-03-07 14:00:00,
2013-03-07 09:05:00,44.1,31.9,30.08,North,351,12.0,18.0,62,0.00,,---,0.00,VWS V14.01,2013-03-07 14:05:00,
2013-03-07 09:10:00,44.6,32.4,30.08,NE,55,10.0,14.0,62,0.00,,---,0.00,VWS V14.01,2013-03-07 14:10:00,
2013-03-07 09:15:00,44.8,31.8,30.08,North,350,10.0,15.0,60,0.00,,---,0.00,VWS V14.01,2013-03-07 14:15:00,
2013-03-07 09:20:00,45.0,31.1,30.08,North,5,14.0,21.0,58,0.00,,---,0.00,VWS V14.01,2013-03-07 14:20:00,
2013-03-07 09:25:00,45.1,31.2,30.08,North,355,15.0,22.0,58,0.00,,---,0.00,VWS V14.01,2013-03-07 14:25:00,
2013-03-07 09:30:00,45.4,31.5,30.08,North,349,13.0,16.0,58,0.00,,---,0.00,VWS V14.01,2013-03-07 14:30:00,
2013-03-07 09:35:00,45.6,31.7,30.08,NNW,344,21.0,21.0,58,0.00,,---,0.00,VWS V14.01,2013-03-07 14:35:00,
2013-03-07 09:40:00,45.7,31.8,30.08,NNE,21,14.0,19.0,58,0.00,,---,0.00,VWS V14.01,2013-03-07 14:40:00,
2013-03-07 09:45:00,45.8,31.5,30.08,NNW,335,15.0,19.0,57,0.00,,---,0.00,VWS V14.01,2013-03-07 14:45:00,
2013-03-07 09:50:00,45.7,30.9,30.08,NNW,344,17.0,21.0,56,0.00,,---,0.00,VWS V14.01,2013-03-07 14:50:00,
2013-03-07 09:55:00,46.1,30.9,30.08,North,5,11.0,21.0,55,0.00,,---,0.00,VWS V14.01,2013-03-07 14:55:00,
2013-03-07 10:00:00,46.3,31.5,30.08,NNE,30,5.0,18.0,56,0.00,,---,0.00,VWS V14.01,2013-03-07 15:00:00,
2013-03-07 10:05:00,46.7,31.4,30.08,North,355,13.0,22.0,55,0.00,,---,0.00,VWS V14.01,2013-03-07 15:05:00,
2013-03-07 10:10:00,47.0,31.7,30.08,NNW,333,17.0,17.0,55,0.00,,---,0.00,VWS V14.01,2013-03-07 15:10:00,
2013-03-07 10:15:00,46.8,30.6,30.08,North,349,18.0,22.0,53,0.00,,---,0.00,VWS V14.01,2013-03-07 15:15:00,
2013-03-07 10:20:00,47.0,31.2,30.08,NNW,346,7.0,19.0,54,0.00,,---,0.00,VWS V14.01,2013-03-07 15:20:00,
2013-03-07 10:25:00,47.0,31.2,30.08,NW,320,11.0,18.0,54,0.00,,---,0.00,VWS V14.01,2013-03-07 15:25:00,
2013-03-07 10:30:00,47.5,31.2,30.07,North,355,16.0,22.0,53,0.00,,---,0.00,VWS V14.01,2013-03-07 15:30:00,
2013-03-07 10:36:00,47.4,30.2,30.07,North,355,18.0,24.0,51,0.00,,---,0.00,VWS V14.01,2013-03-07 15:36:00,
2013-03-07 10:41:00,47.4,30.7,30.07,NNE,32,11.0,21.0,52,0.00,,---,0.00,VWS V14.01,2013-03-07 15:41:00,
2013-03-07 10:46:00,47.6,30.9,30.07,North,5,10.0,20.0,52,0.00,,---,0.00,VWS V14.01,2013-03-07 15:46:00,
2013-03-07 10:51:00,48.2,31.4,30.07,North,360,18.0,20.0,52,0.00,,---,0.00,VWS V14.01,2013-03-07 15:51:00,
2013-03-07 10:56:00,48.5,31.7,30.06,North,5,8.0,14.0,52,0.00,,---,0.00,VWS V14.01,2013-03-07 15:56:00,
2013-03-07 11:01:00,48.3,30.5,30.07,NNW,327,13.0,26.0,50,0.00,,---,0.00,VWS V14.01,2013-03-07 16:01:00,
2013-03-07 11:06:00,48.5,31.7,30.06,NNE,15,10.0,19.0,52,0.00,,---,0.00,VWS V14.01,2013-03-07 16:06:00,
2013-03-07 11:11:00,48.6,30.8,30.07,NNW,347,15.0,17.0,50,0.00,,---,0.00,VWS V14.01,2013-03-07 16:11:00,
2013-03-07 11:16:00,48.6,31.3,30.07,North,9,12.0,21.0,51,0.00,,---,0.00,VWS V14.01,2013-03-07 16:16:00,
2013-03-07 11:21:00,48.7,31.4,30.07,NNW,329,13.0,17.0,51,0.00,,---,0.00,VWS V14.01,2013-03-07 16:21:00,
2013-03-07 11:26:00,48.9,31.1,30.07,NNW,337,13.0,16.0,50,0.00,,---,0.00,VWS V14.01,2013-03-07 16:26:00,
2013-03-07 11:31:00,48.9,30.6,30.07,NNW,341,13.0,22.0,49,0.00,,---,0.00,VWS V14.01,2013-03-07 16:31:00,
2013-03-07 11:36:00,49.2,31.4,30.07,NNW,342,12.0,20.0,50,0.00,,---,0.00,VWS V14.01,2013-03-07 16:36:00,
2013-03-07 11:41:00,49.8,31.4,30.07,North,355,11.0,19.0,49,0.00,,---,0.00,VWS V14.01,2013-03-07 16:41:00,
2013-03-07 11:46:00,49.8,30.4,30.07,NNE,15,16.0,18.0,47,0.00,,---,0.00,VWS V14.01,2013-03-07 16:46:00,
2013-03-07 11:51:00,49.9,30.5,30.07,North,360,6.0,20.0,47,0.00,,---,0.00,VWS V14.01,2013-03-07 16:51:00,
2013-03-07 11:56:00,50.1,30.7,30.07,NNW,346,6.0,19.0,47,0.00,,---,0.00,VWS V14.01,2013-03-07 16:56:00,
2013-03-07 12:01:00,50.3,30.9,30.06,NNW,338,17.0,19.0,47,0.00,,---,0.00,VWS V14.01,2013-03-07 17:01:00,
2013-03-07 12:06:00,50.2,30.8,30.06,WNW,302,10.0,16.0,47,0.00,,---,0.00,VWS V14.01,2013-03-07 17:06:00,
2013-03-07 12:11:00,50.6,30.6,30.06,NNW,344,6.0,22.0,46,0.00,,---,0.00,VWS V14.01,2013-03-07 17:11:00,
2013-03-07 12:16:00,50.8,30.2,30.06,NNW,336,12.0,18.0,45,0.00,,---,0.00,VWS V14.01,2013-03-07 17:16:00,
2013-03-07 12:21:00,51.0,30.4,30.06,North,5,14.0,16.0,45,0.00,,---,0.00,VWS V14.01,2013-03-07 17:21:00,
2013-03-07 12:26:00,50.8,30.2,30.06,NNE,29,6.0,15.0,45,0.00,,---,0.00,VWS V14.01,2013-03-07 17:26:00,
2013-03-07 12:31:00,51.1,30.5,30.06,NNW,331,9.0,14.0,45,0.00,,---,0.00,VWS V14.01,2013-03-07 17:31:00,
2013-03-07 12:36:00,51.4,30.8,30.05,NNW,348,13.0,17.0,45,0.00,,---,0.00,VWS V14.01,2013-03-07 17:36:00,
2013-03-07 12:41:00,51.2,30.6,30.05,NNW,340,9.0,19.0,45,0.00,,---,0.00,VWS V14.01,2013-03-07 17:41:00,
2013-03-07 12:46:00,51.2,30.0,30.05,North,5,8.0,17.0,44,0.00,,---,0.00,VWS V14.01,2013-03-07 17:46:00,
2013-03-07 12:51:00,51.5,31.4,30.05,NW,313,8.0,17.0,46,0.00,,---,0.00,VWS V14.01,2013-03-07 17:51:00,
2013-03-07 12:56:00,51.8,31.1,30.05,NNW,331,10.0,16.0,45,0.00,,---,0.00,VWS V14.01,2013-03-07 17:56:00,
2013-03-07 13:01:00,52.0,30.8,30.05,North,10,7.0,16.0,44,0.00,,---,0.00,VWS V14.01,2013-03-07 18:01:00,
2013-03-07 13:06:00,52.4,31.1,30.05,NNW,334,3.0,13.0,44,0.00,,---,0.00,VWS V14.01,2013-03-07 18:06:00,
2013-03-07 13:11:00,52.3,30.5,30.05,NW,326,6.0,12.0,43,0.00,,---,0.00,VWS V14.01,2013-03-07 18:11:00,
2013-03-07 13:16:00,52.1,30.3,30.04,NW,312,14.0,18.0,43,0.00,,---,0.00,VWS V14.01,2013-03-07 18:16:00,
2013-03-07 13:21:00,52.0,30.8,30.04,NW,323,11.0,18.0,44,0.00,,---,0.00,VWS V14.01,2013-03-07 18:21:00,
2013-03-07 13:26:00,52.1,30.9,30.04,NW,310,16.0,20.0,44,0.00,,---,0.00,VWS V14.01,2013-03-07 18:26:00,
2013-03-07 13:31:00,52.0,30.8,30.04,NNW,336,13.0,20.0,44,0.00,,---,0.00,VWS V14.01,2013-03-07 18:31:00,
2013-03-07 13:36:00,52.1,30.9,30.03,NW,319,13.0,22.0,44,0.00,,---,0.00,VWS V14.01,2013-03-07 18:36:00,
2013-03-07 13:41:00,52.1,31.4,30.03,NW,309,13.0,17.0,45,0.00,,---,0.00,VWS V14.01,2013-03-07 18:41:00,
2013-03-07 13:46:00,52.4,31.1,30.03,NW,313,11.0,24.0,44,0.00,,---,0.00,VWS V14.01,2013-03-07 18:46:00,
2013-03-07 13:51:00,52.5,31.2,30.03,North,5,9.0,22.0,44,0.00,,---,0.00,VWS V14.01,2013-03-07 18:51:00,
2013-03-07 13:56:00,52.5,30.7,30.03,North,5,9.0,13.0,43,0.00,,---,0.00,VWS V14.01,2013-03-07 18:56:00,
2013-03-07 14:01:00,52.9,31.6,30.02,NW,315,9.0,15.0,44,0.00,,---,0.00,VWS V14.01,2013-03-07 19:01:00,
2013-03-07 14:06:00,53.2,31.3,30.02,WNW,297,12.0,23.0,43,0.00,,---,0.00,VWS V14.01,2013-03-07 19:06:00,
2013-03-07 14:11:00,52.8,31.5,30.03,NW,311,8.0,21.0,44,0.00,,---,0.00,VWS V14.01,2013-03-07 19:11:00,
2013-03-07 14:16:00,53.0,31.7,30.02,NNW,328,12.0,14.0,44,0.00,,---,0.00,VWS V14.01,2013-03-07 19:16:00,
2013-03-07 14:21:00,52.8,31.5,30.02,NW,323,17.0,20.0,44,0.00,,---,0.00,VWS V14.01,2013-03-07 19:21:00,
2013-03-07 14:27:00,53.0,31.7,30.02,NW,314,12.0,22.0,44,0.00,,---,0.00,VWS V14.01,2013-03-07 19:27:00,
2013-03-07 14:31:00,53.3,32.5,30.02,NNW,328,13.0,14.0,45,0.00,,---,0.00,VWS V14.01,2013-03-07 19:31:00,
2013-03-07 14:36:00,53.5,32.1,30.02,WNW,297,10.0,21.0,44,0.00,,---,0.00,VWS V14.01,2013-03-07 19:36:00,
2013-03-07 14:41:00,53.0,31.7,30.03,NW,321,8.0,24.0,44,0.00,,---,0.00,VWS V14.01,2013-03-07 19:41:00,
2013-03-07 14:46:00,52.9,32.2,30.03,NNW,347,7.0,20.0,45,0.00,,---,0.00,VWS V14.01,2013-03-07 19:46:00,
2013-03-07 14:51:00,53.5,32.1,30.03,North,11,16.0,18.0,44,0.00,,---,0.00,VWS V14.01,2013-03-07 19:51:00,
2013-03-07 14:56:00,53.3,32.0,30.03,NNW,342,11.0,18.0,44,0.00,,---,0.00,VWS V14.01,2013-03-07 19:56:00,
2013-03-07 15:01:00,53.3,32.5,30.03,NW,319,9.0,21.0,45,0.00,,---,0.00,VWS V14.01,2013-03-07 20:01:00,
2013-03-07 15:06:00,53.1,32.9,30.03,North,355,14.0,20.0,46,0.00,,---,0.00,VWS V14.01,2013-03-07 20:06:00,
2013-03-07 15:11:00,52.9,32.7,30.03,NNW,333,11.0,16.0,46,0.00,,---,0.00,VWS V14.01,2013-03-07 20:11:00,
2013-03-07 15:16:00,52.8,32.1,30.04,NW,309,12.0,20.0,45,0.00,,---,0.00,VWS V14.01,2013-03-07 20:16:00,
2013-03-07 15:21:00,52.8,32.6,30.04,NW,326,11.0,19.0,46,0.00,,---,0.00,VWS V14.01,2013-03-07 20:21:00,
2013-03-07 15:26:00,53.1,32.9,30.04,WNW,295,12.0,17.0,46,0.00,,---,0.00,VWS V14.01,2013-03-07 20:26:00,
2013-03-07 15:31:00,53.1,32.3,30.04,NW,317,12.0,21.0,45,0.00,,---,0.00,VWS V14.01,2013-03-07 20:31:00,
2013-03-07 15:36:00,52.8,32.1,30.04,WNW,300,14.0,21.0,45,0.00,,---,0.00,VWS V14.01,2013-03-07 20:36:00,
2013-03-07 15:41:00,52.7,32.5,30.04,NNW,330,13.0,21.0,46,0.00,,---,0.00,VWS V14.01,2013-03-07 20:41:00,
2013-03-07 15:46:00,52.8,33.2,30.04,NW,323,9.0,18.0,47,0.00,,---,0.00,VWS V14.01,2013-03-07 20:46:00,
2013-03-07 15:51:00,53.0,31.7,30.04,North,5,11.0,17.0,44,0.00,,---,0.00,VWS V14.01,2013-03-07 20:51:00,
2013-03-07 15:56:00,52.7,32.5,30.05,NW,313,10.0,19.0,46,0.00,,---,0.00,VWS V14.01,2013-03-07 20:56:00,
2013-03-07 16:01:00,52.3,32.2,30.05,NNW,338,8.0,22.0,46,0.00,,---,0.00,VWS V14.01,2013-03-07 21:01:00,
2013-03-07 16:06:00,52.5,32.3,30.05,NNW,345,13.0,18.0,46,0.00,,---,0.00,VWS V14.01,2013-03-07 21:06:00,
2013-03-07 16:11:00,52.6,31.9,30.05,NW,313,14.0,18.0,45,0.00,,---,0.00,VWS V14.01,2013-03-07 21:11:00,
2013-03-07 16:17:00,52.6,32.4,30.05,NNW,327,12.0,15.0,46,0.00,,---,0.00,VWS V14.01,2013-03-07 21:17:00,
2013-03-07 16:22:00,52.7,33.0,30.05,NW,325,18.0,18.0,47,0.00,,---,0.00,VWS V14.01,2013-03-07 21:22:00,
2013-03-07 16:27:00,52.5,32.3,30.05,NNW,329,11.0,18.0,46,0.00,,---,0.00,VWS V14.01,2013-03-07 21:27:00,
2013-03-07 16:32:00,52.4,32.8,30.05,NNW,336,8.0,14.0,47,0.00,,---,0.00,VWS V14.01,2013-03-07 21:32:00,
2013-03-07 16:37:00,52.1,32.5,30.05,NNW,333,10.0,16.0,47,0.00,,---,0.00,VWS V14.01,2013-03-07 21:37:00,
2013-03-07 16:42:00,52.0,32.4,30.05,NNW,340,15.0,19.0,47,0.00,,---,0.00,VWS V14.01,2013-03-07 21:42:00,
2013-03-07 16:47:00,52.0,32.4,30.05,North,5,13.0,17.0,47,0.00,,---,0.00,VWS V14.01,2013-03-07 21:47:00,
2013-03-07 16:52:00,51.9,32.3,30.06,NNW,348,11.0,14.0,47,0.00,,---,0.00,VWS V14.01,2013-03-07 21:52:00,
2013-03-07 16:57:00,51.8,32.2,30.06,NW,322,11.0,18.0,47,0.00,,---,0.00,VWS V14.01,2013-03-07 21:57:00,
2013-03-07 17:02:00,51.7,32.7,30.06,NNW,347,11.0,18.0,48,0.00,,---,0.00,VWS V14.01,2013-03-07 22:02:00,
2013-03-07 17:07:00,51.7,32.7,30.06,NNW,330,9.0,11.0,48,0.00,,---,0.00,VWS V14.01,2013-03-07 22:07:00,
2013-03-07 17:12:00,51.7,32.7,30.06,NNW,343,13.0,17.0,48,0.00,,---,0.00,VWS V14.01,2013-03-07 22:12:00,
2013-03-07 17:17:00,51.7,32.7,30.06,NNW,338,12.0,12.0,48,0.00,,---,0.00,VWS V14.01,2013-03-07 22:17:00,
2013-03-07 17:22:00,51.6,32.6,30.06,NNW,334,3.0,12.0,48,0.00,,---,0.00,VWS V14.01,2013-03-07 22:22:00,
2013-03-07 17:27:00,51.6,33.1,30.07,NNE,12,5.0,12.0,49,0.00,,---,0.00,VWS V14.01,2013-03-07 22:27:00,
2013-03-07 17:32:00,51.3,32.8,30.07,North,350,6.0,14.0,49,0.00,,---,0.00,VWS V14.01,2013-03-07 22:32:00,
2013-03-07 17:37:00,51.1,32.6,30.07,NW,315,10.0,11.0,49,0.00,,---,0.00,VWS V14.01,2013-03-07 22:37:00,
2013-03-07 17:42:00,51.0,33.0,30.07,NNE,23,8.0,11.0,50,0.00,,---,0.00,VWS V14.01,2013-03-07 22:42:00,
2013-03-07 17:47:00,50.9,33.4,30.07,North,5,7.0,12.0,51,0.00,,---,0.00,VWS V14.01,2013-03-07 22:47:00,
2013-03-07 17:52:00,50.6,33.2,30.08,North,9,9.0,13.0,51,0.00,,---,0.00,VWS V14.01,2013-03-07 22:52:00,
2013-03-07 17:57:00,50.4,33.0,30.08,NNE,15,3.0,11.0,51,0.00,,---,0.00,VWS V14.01,2013-03-07 22:57:00,
2013-03-07 18:02:00,50.2,33.3,30.08,NNE,17,6.0,11.0,52,0.00,,---,0.00,VWS V14.01,2013-03-07 23:02:00,
2013-03-07 18:07:00,49.9,33.5,30.08,North,360,5.0,8.0,53,0.00,,---,0.00,VWS V14.01,2013-03-07 23:07:00,
2013-03-07 18:12:00,49.6,33.7,30.09,NNE,26,2.0,10.0,54,0.00,,---,0.00,VWS V14.01,2013-03-07 23:12:00,
2013-03-07 18:17:00,49.5,33.1,30.09,North,355,4.0,13.0,53,0.00,,---,0.00,VWS V14.01,2013-03-07 23:17:00,
2013-03-07 18:22:00,49.3,33.4,30.09,North,5,4.0,9.0,54,0.00,,---,0.00,VWS V14.01,2013-03-07 23:22:00,
2013-03-07 18:27:00,49.1,33.7,30.10,NNW,338,5.0,10.0,55,0.00,,---,0.00,VWS V14.01,2013-03-07 23:27:00,
2013-03-07 18:32:00,48.9,33.5,30.10,NNE,26,4.0,7.0,55,0.00,,---,0.00,VWS V14.01,2013-03-07 23:32:00,
2013-03-07 18:37:00,48.7,33.7,30.10,NNE,21,5.0,10.0,56,0.00,,---,0.00,VWS V14.01,2013-03-07 23:37:00,
2013-03-07 18:42:00,48.5,33.5,30.11,NNW,343,4.0,8.0,56,0.00,,---,0.00,VWS V14.01,2013-03-07 23:42:00,
2013-03-07 18:47:00,48.3,33.8,30.11,North,355,7.0,9.0,57,0.00,,---,0.00,VWS V14.01,2013-03-07 23:47:00,
2013-03-07 18:52:00,48.0,33.5,30.11,North,5,2.0,9.0,57,0.00,,---,0.00,VWS V14.01,2013-03-07 23:52:00,
2013-03-07 18:57:00,47.8,33.8,30.12,North,5,4.0,8.0,58,0.00,,---,0.00,VWS V14.01,2013-03-07 23:57:00,
2013-03-07 19:02:00,47.7,33.7,30.12,North,5,1.0,9.0,58,0.00,,---,0.00,VWS V14.01,2013-03-08 00:02:00,
2013-03-07 19:07:00,47.5,33.5,30.12,NNW,342,9.0,9.0,58,0.00,,---,0.00,VWS V14.01,2013-03-08 00:07:00,
2013-03-07 19:12:00,47.4,33.4,30.12,North,349,5.0,10.0,58,0.00,,---,0.00,VWS V14.01,2013-03-08 00:12:00,
2013-03-07 19:17:00,47.2,33.2,30.12,NNW,331,7.0,10.0,58,0.00,,---,0.00,VWS V14.01,2013-03-08 00:17:00,
2013-03-07 19:22:00,47.2,33.2,30.12,NNW,333,8.0,10.0,58,0.00,,---,0.00,VWS V14.01,2013-03-08 00:22:00,
2013-03-07 19:27:00,47.1,33.1,30.12,North,360,11.0,13.0,58,0.00,,---,0.00,VWS V14.01,2013-03-08 00:27:00,
2013-03-07 19:32:00,47.0,33.0,30.12,NW,317,6.0,11.0,58,0.00,,---,0.00,VWS V14.01,2013-03-08 00:32:00,
2013-03-07 19:37:00,46.9,32.9,30.12,NNW,341,8.0,13.0,58,0.00,,---,0.00,VWS V14.01,2013-03-08 00:37:00,
2013-03-07 19:42:00,46.8,32.8,30.12,NNW,348,7.0,12.0,58,0.00,,---,0.00,VWS V14.01,2013-03-08 00:42:00,
2013-03-07 19:47:00,46.7,32.7,30.13,NNW,344,11.0,11.0,58,0.00,,---,0.00,VWS V14.01,2013-03-08 00:47:00,
2013-03-07 19:52:00,46.6,32.6,30.13,North,360,7.0,13.0,58,0.00,,---,0.00,VWS V14.01,2013-03-08 00:52:00,
2013-03-07 19:57:00,46.5,32.1,30.12,NNW,338,9.0,13.0,57,0.00,,---,0.00,VWS V14.01,2013-03-08 00:57:00,
2013-03-07 20:02:00,46.5,32.1,30.13,NNW,348,8.0,12.0,57,0.00,,---,0.00,VWS V14.01,2013-03-08 01:02:00,
2013-03-07 20:07:00,46.4,32.0,30.13,NNE,22,7.0,12.0,57,0.00,,---,0.00,VWS V14.01,2013-03-08 01:07:00,
2013-03-07 20:12:00,46.4,32.4,30.13,North,360,6.0,10.0,58,0.00,,---,0.00,VWS V14.01,2013-03-08 01:12:00,
2013-03-07 20:17:00,46.3,32.3,30.13,NNW,333,4.0,8.0,58,0.00,,---,0.00,VWS V14.01,2013-03-08 01:17:00,
2013-03-07 20:22:00,46.1,32.2,30.13,NNW,331,4.0,9.0,58,0.00,,---,0.00,VWS V14.01,2013-03-08 01:22:00,
2013-03-07 20:27:00,46.0,32.1,30.13,NNW,343,2.0,8.0,58,0.00,,---,0.00,VWS V14.01,2013-03-08 01:27:00,
2013-03-07 20:32:00,46.0,32.5,30.14,NNW,330,3.0,8.0,59,0.00,,---,0.00,VWS V14.01,2013-03-08 01:32:00,
2013-03-07 20:37:00,46.0,32.5,30.14,North,355,7.0,9.0,59,0.00,,---,0.00,VWS V14.01,2013-03-08 01:37:00,
2013-03-07 20:42:00,46.0,32.5,30.13,NNW,346,4.0,7.0,59,0.00,,---,0.00,VWS V14.01,2013-03-08 01:42:00,
2013-03-07 20:47:00,45.8,32.7,30.13,NNW,338,4.0,8.0,60,0.00,,---,0.00,VWS V14.01,2013-03-08 01:47:00,
2013-03-07 20:52:00,45.6,32.5,30.13,NW,313,5.0,7.0,60,0.00,,---,0.00,VWS V14.01,2013-03-08 01:52:00,
2013-03-07 20:57:00,45.5,32.4,30.14,North,355,4.0,7.0,60,0.00,,---,0.00,VWS V14.01,2013-03-08 01:57:00,
2013-03-07 21:02:00,45.5,32.4,30.14,NNW,329,3.0,8.0,60,0.00,,---,0.00,VWS V14.01,2013-03-08 02:02:00,
2013-03-07 21:07:00,45.4,32.3,30.14,NNW,339,4.0,8.0,60,0.00,,---,0.00,VWS V14.01,2013-03-08 02:07:00,
2013-03-07 21:12:00,45.2,32.2,30.14,NW,316,5.0,8.0,60,0.00,,---,0.00,VWS V14.01,2013-03-08 02:12:00,
2013-03-07 21:17:00,45.1,32.5,30.14,NNW,333,1.0,6.0,61,0.00,,---,0.00,VWS V14.01,2013-03-08 02:17:00,
2013-03-07 21:22:00,45.1,32.5,30.14,NNW,342,6.0,7.0,61,0.00,,---,0.00,VWS V14.01,2013-03-08 02:22:00,
2013-03-07 21:27:00,45.2,32.6,30.14,NNW,345,3.0,7.0,61,0.00,,---,0.00,VWS V14.01,2013-03-08 02:27:00,
2013-03-07 21:32:00,45.1,32.5,30.14,NNW,338,4.0,6.0,61,0.00,,---,0.00,VWS V14.01,2013-03-08 02:32:00,
2013-03-07 21:37:00,45.0,32.4,30.14,NNW,327,4.0,8.0,61,0.00,,---,0.00,VWS V14.01,2013-03-08 02:37:00,
2013-03-07 21:42:00,44.9,32.3,30.14,NNW,329,6.0,7.0,61,0.00,,---,0.00,VWS V14.01,2013-03-08 02:42:00,
2013-03-07 21:47:00,44.7,32.5,30.14,NW,325,4.0,7.0,62,0.00,,---,0.00,VWS V14.01,2013-03-08 02:47:00,
2013-03-07 21:52:00,44.5,32.3,30.14,NNW,336,4.0,6.0,62,0.00,,---,0.00,VWS V14.01,2013-03-08 02:52:00,
2013-03-07 21:57:00,44.5,32.3,30.14,North,351,5.0,7.0,62,0.00,,---,0.00,VWS V14.01,2013-03-08 02:57:00,
2013-03-07 22:02:00,44.4,32.6,30.14,NNW,343,5.0,7.0,63,0.00,,---,0.00,VWS V14.01,2013-03-08 03:02:00,
2013-03-07 22:07:00,44.3,32.5,30.14,NNW,348,5.0,6.0,63,0.00,,---,0.00,VWS V14.01,2013-03-08 03:07:00,
2013-03-07 22:12:00,44.2,33.2,30.14,North,360,3.0,7.0,65,0.00,,---,0.00,VWS V14.01,2013-03-08 03:12:00,
2013-03-07 22:17:00,44.2,33.2,30.14,NNW,345,3.0,8.0,65,0.00,,---,0.00,VWS V14.01,2013-03-08 03:17:00,
2013-03-07 22:22:00,44.2,33.2,30.14,NNW,347,5.0,7.0,65,0.00,,---,0.00,VWS V14.01,2013-03-08 03:22:00,
2013-03-07 22:27:00,44.1,33.1,30.14,NNW,346,4.0,7.0,65,0.00,,---,0.00,VWS V14.01,2013-03-08 03:27:00,
2013-03-07 22:32:00,44.0,33.0,30.14,NNW,342,2.0,7.0,65,0.00,,---,0.00,VWS V14.01,2013-03-08 03:32:00,
2013-03-07 22:37:00,43.8,33.2,30.14,North,5,1.0,5.0,66,0.00,,---,0.00,VWS V14.01,2013-03-08 03:37:00,
2013-03-07 22:42:00,43.8,33.2,30.14,North,5,2.0,5.0,66,0.00,,---,0.00,VWS V14.01,2013-03-08 03:42:00,
2013-03-07 22:47:00,43.7,33.1,30.14,North,355,2.0,5.0,66,0.00,,---,0.00,VWS V14.01,2013-03-08 03:47:00,
2013-03-07 22:52:00,43.6,33.0,30.14,North,350,2.0,5.0,66,0.00,,---,0.00,VWS V14.01,2013-03-08 03:52:00,
2013-03-07 22:57:00,43.4,33.2,30.15,NNE,13,3.0,6.0,67,0.00,,---,0.00,VWS V14.01,2013-03-08 03:57:00,
2013-03-07 23:02:00,43.2,33.4,30.15,NNW,346,4.0,7.0,68,0.00,,---,0.00,VWS V14.01,2013-03-08 04:02:00,
2013-03-07 23:07:00,43.1,33.3,30.15,NNE,13,6.0,6.0,68,0.00,,---,0.00,VWS V14.01,2013-03-08 04:07:00,
2013-03-07 23:12:00,42.9,33.1,30.15,NNE,15,4.0,6.0,68,0.00,,---,0.00,VWS V14.01,2013-03-08 04:12:00,
2013-03-07 23:17:00,42.8,33.0,30.15,North,360,5.0,9.0,68,0.00,,---,0.00,VWS V14.01,2013-03-08 04:17:00,
2013-03-07 23:22:00,43.0,32.8,30.15,North,5,5.0,9.0,67,0.00,,---,0.00,VWS V14.01,2013-03-08 04:22:00,
2013-03-07 23:27:00,43.3,32.3,30.14,North,351,8.0,11.0,65,0.00,,---,0.00,VWS V14.01,2013-03-08 04:27:00,
2013-03-07 23:32:00,43.5,32.2,30.14,North,360,7.0,8.0,64,0.00,,---,0.00,VWS V14.01,2013-03-08 04:32:00,
2013-03-07 23:37:00,43.6,31.9,30.14,NNW,348,6.0,7.0,63,0.00,,---,0.00,VWS V14.01,2013-03-08 04:37:00,
2013-03-07 23:42:00,43.5,31.8,30.14,NNW,340,4.0,7.0,63,0.00,,---,0.00,VWS V14.01,2013-03-08 04:42:00,
2013-03-07 23:47:00,43.4,32.0,30.14,NNW,344,3.0,8.0,64,0.00,,---,0.00,VWS V14.01,2013-03-08 04:47:00,
2013-03-07 23:52:00,43.3,31.6,30.15,North,5,7.0,9.0,63,0.00,,---,0.00,VWS V14.01,2013-03-08 04:52:00,
2013-03-07 23:57:00,43.3,31.6,30.15,NNW,327,4.0,9.0,63,0.00,,---,0.00,VWS V14.01,2013-03-08 04:57:00,